TimeEDT,TemperatureF,Dew PointF,Humidity,Sea Level PressureIn,VisibilityMPH,Wind Direction,Wind SpeedMPH,Gust SpeedMPH,PrecipitationIn,Events,Conditions,WindDirDegrees,DateUTC
12:53 AM,73.0,68.0,84,29.94,8.0,SSW,3.5,-,N/A,,Clear,200,2012-09-07 04:53:00
1:53 AM,71.1,66.9,87,29.93,6.0,Calm,Calm,-,N/A,,Clear,0,2012-09-07 05:53:00
2:53 AM,69.1,66.0,90,29.93,5.0,Calm,Calm,-,N/A,,Clear,0,2012-09-07 06:53:00
3:53 AM,66.9,64.9,93,29.91,5.0,Calm,Calm,-,N/A,,Clear,0,2012-09-07 07:53:00
4:53 AM,69.1,66.9,93,29.91,5.0,South,3.5,-,N/A,,Clear,190,2012-09-07 08:53:00
5:53 AM,66.9,64.9,93,29.93,3.0,Calm,Calm,-,N/A,,Clear,0,2012-09-07 09:53:00
6:30 AM,66.2,64.4,94,29.94,3.0,Calm,Calm,-,N/A,,Clear,0,2012-09-07 10:30:00
6:53 AM,66.0,64.0,93,29.93,3.0,Calm,Calm,-,N/A,,Clear,0,2012-09-07 10:53:00
7:15 AM,66.2,64.4,94,29.95,2.5,Calm,Calm,-,N/A,,Clear,0,2012-09-07 11:15:00
7:53 AM,68.0,66.9,96,29.95,2.5,Calm,Calm,-,N/A,,Clear,0,2012-09-07 11:53:00
8:24 AM,71.6,68.0,88,29.96,3.0,SSE,3.5,-,0.01,,Clear,160,2012-09-07 12:24:00
8:53 AM,73.0,69.1,87,29.94,5.0,Calm,Calm,-,0.01,,Clear,0,2012-09-07 12:53:00
9:53 AM,77.0,70.0,79,29.94,6.0,SW,3.5,-,N/A,,Haze,220,2012-09-07 13:53:00
10:53 AM,80.1,70.0,71,29.94,7.0,SW,8.1,-,N/A,,Clear,230,2012-09-07 14:53:00
11:53 AM,82.0,69.1,65,29.93,10.0,WSW,8.1,-,N/A,,Clear,240,2012-09-07 15:53:00
12:53 PM,84.0,66.0,55,29.91,10.0,SSW,9.2,-,N/A,,Clear,210,2012-09-07 16:53:00
1:53 PM,84.9,66.0,53,29.89,10.0,SW,9.2,-,N/A,,Partly Cloudy,220,2012-09-07 17:53:00
2:53 PM,84.9,66.0,53,29.87,10.0,SSW,8.1,-,N/A,,Scattered Clouds,210,2012-09-07 18:53:00
3:53 PM,84.9,66.0,53,29.85,10.0,Variable,6.9,-,N/A,,Partly Cloudy,0,2012-09-07 19:53:00
4:53 PM,84.0,66.0,55,29.84,10.0,SSW,5.8,-,N/A,,Scattered Clouds,200,2012-09-07 20:53:00
5:03 PM,84.2,66.2,55,29.86,10.0,South,5.8,-,N/A,Thunderstorm,Scattered Clouds,190,2012-09-07 21:03:00
5:53 PM,82.9,66.9,58,29.82,10.0,WSW,3.5,-,N/A,,Mostly Cloudy,250,2012-09-07 21:53:00
6:53 PM,79.0,66.9,66,29.79,9.0,ENE,5.8,-,N/A,,Clear,70,2012-09-07 22:53:00
7:53 PM,73.9,66.0,76,29.74,9.0,ESE,8.1,-,N/A,,Clear,110,2012-09-07 23:53:00
8:53 PM,78.1,66.9,68,29.72,10.0,SSE,8.1,-,N/A,,Clear,160,2012-09-08 00:53:00
9:53 PM,75.9,66.0,71,29.75,10.0,Calm,Calm,-,N/A,,Clear,0,2012-09-08 01:53:00
10:53 PM,75.0,66.0,73,29.73,10.0,SE,3.5,-,N/A,,Clear,140,2012-09-08 02:53:00
11:53 PM,75.0,64.9,71,29.68,10.0,SE,5.8,-,N/A,,Clear,140,2012-09-08 03:53:00